Tracking 19817 objects as of 17-Aug-2019
HD Live streaming from Space Station
objects crossing your sky now

COSMOS 2251 DEB

Track COSMOS 2251 DEB now!
10-day predictions


NORAD ID: 34787
Int'l Code: 1993-036AAQ
Perigee: 662.3 km
Apogee: 684.7 km
Inclination: 74.0 °
Period: 98.1 minutes
Semi major axis: 7044 km
RCS: 0.0014 m2 (small)
Launch date: June 16, 1993
Source: Commonwealth of Independent States (former USSR) (CIS)
Launch site: PLESETSK MISSILE AND SPACE COMPLEX (PKMTR)

Note: This is SATELLITE DEBRIS
aabbcc
Your satellite tracking list
Your tracking list is empty




NASA's NSSDC Master Catalog

Two Line Element Set (TLE):
1 34787U 93036AAQ 19228.70000813 +.00000907 +00000-0 +16223-3 0  9994
2 34787 074.0215 327.2046 0015861 317.6968 042.2978 14.68347649545935
Source of the keplerian elements: AFSPC